www.pogodaiklimat.ru

Погода и климат >> Архив погоды >> Канада >> Hat Island


ПОГОДА в Hat Island

  • Прогноз погоды в Hat Island
  • Монитор погоды в Hat Island
  • Климат города

АРХИВ ПОГОДЫ в Hat Island

Время (UTC), дата Ветер
(напр.,м/с)
 
Видим.   Явления Облачность Т
(С)
Тd
(С)
f
(%)
Тe
(С)
Тes
(С)
Комфортность P
(гПа)
Po
(гПа)
Тmin
(С)
Tmax
(С)
R
(мм)
R24
(мм)
S
(см)
15 8.12 СЗ 9 н/о 10/10 50 м
[]
-19.6 -21.5 85 -32 -32 опасность
обморожения
1015.3 1010.4
18 8.12 СЗ 10 н/о 10/10 1000 м
[]
-19.6 -21.5 85 -33 -33 опасность
обморожения
1014.6 1009.7
21 8.12 СЗ 12 н/о 9/9 100 м
[]
-19.7 -21.5 86 -34 -34 опасность
обморожения
1012.7 1007.8
00 9.12 СЗ 12 н/о 10/10 300 м
[]
-22.0 -24.0 84 -37 -37 опасность
обморожения
1012.1 1007.2
03 9.12 СЗ 12 н/о 10/10 600 м
[]
-22.5 -24.6 83 -38 -38 опасность
обморожения
1010.1 1005.2
06 9.12 СЗ 11 н/о 3/3 50 м
[]
-23.9 -26.1 82 -39 -39 опасность
обморожения
1011.9 1007.0
09 9.12 СЗ 10 н/о 10/10 50 м
[]
-25.7 -28.0 81 -41 -41 опасность
обморожения
1012.0 1007.1
12 9.12 СЗ 8 н/о 10/10 50 м
[]
-26.4 -28.8 80 -41 -41 опасность
обморожения
1012.7 1007.8
15 9.12 СЗ 9 н/о ясно -26.4 -28.8 80 -41 -41 опасность
обморожения
1012.7 1007.8
18 9.12 СЗ 10 н/о 10/10 50 м
[]
-26.0 -28.4 80 -41 -41 опасность
обморожения
1013.8 1008.8
21 9.12 СЗ 9 н/о 10/10 50 м
[]
-27.1 -29.6 79 -42 -42 опасность
обморожения
1014.9 1009.9
00 10.12 З 9 н/о ясно -28.0 -30.5 79 -43 -43 опасность
обморожения
1015.6 1010.6
03 10.12 З 9 н/о 10/10 50 м
[]
-28.4 -31.0 78 -44 -44 опасность
обморожения
1014.8 1009.8
06 10.12 З 9 н/о ясно -28.4 -31.0 78 -44 -44 опасность
обморожения
1015.6 1010.6
09 10.12 З 9 н/о 3/3 300 м
[]
-28.6 -31.2 78 -44 -44 опасность
обморожения
1015.3 1010.3
12 10.12 З 10 н/о 10/0 2000 м
[]
-28.4 -31.0 78 -45 -45 опасность
обморожения
1013.9 1008.9
15 10.12 СЗ 9 н/о 10/10 100 м
[]
-25.0 -27.3 81 -40 -40 опасность
обморожения
1013.7 1008.7
18 10.12 СЗ 10 н/о 10/10 300 м
[]
-22.2 -24.3 83 -37 -37 опасность
обморожения
1013.5 1008.5
21 10.12 СЗ 12 н/о 10/10 300 м
[]
-21.0 -23.0 84 -36 -36 опасность
обморожения
1016.2 1011.2
00 11.12 СЗ 11 н/о 9/9 50 м
[]
-22.6 -24.7 83 -38 -38 опасность
обморожения
1017.3 1012.3
03 11.12 СЗ 11 н/о 9/9 50 м
[]
-25.9 -28.2 81 -42 -42 опасность
обморожения
1016.9 1011.9
06 11.12 З 11 н/о 5/5 50 м
[]
-27.9 -30.4 79 -45 -45 опасность
обморожения
1018.1 1013.1
09 11.12 З 10 н/о 10/10 200 м
[]
-28.5 -31.1 78 -45 -45 опасность
обморожения
1018.4 1013.4
12 11.12 З 9 н/о 10/10 50 м
[]
-26.5 -29.0 79 -42 -42 опасность
обморожения
1018.4 1013.4
15 11.12 З 9 н/о 10/10 100 м
[]
-24.2 -26.5 81 -39 -39 опасность
обморожения
1015.7 1010.7
18 11.12 З 8 н/о 10/10 100 м
[]
-25.8 -28.2 80 -40 -40 опасность
обморожения
1017.2 1012.2
21 11.12 З 8 н/о 3/3 300 м
[]
-28.7 -31.3 78 -43 -43 опасность
обморожения
1016.8 1011.8
00 12.12 З 9 н/о 10/10 300 м
[]
-24.8 -27.1 81 -39 -39 опасность
обморожения
1016.4 1011.4
03 12.12 З 9 н/о 10/10 300 м
[]
-23.2 -25.4 82 -37 -37 опасность
обморожения
1014.8 1009.8
06 12.12 З 9 н/о 10/10 100 м
[]
-23.3 -25.5 82 -37 -37 опасность
обморожения
1012.7 1007.7
09 12.12 З 8 н/о 10/10 100 м
[]
-21.8 -23.8 84 -35 -35 опасность
обморожения
1010.5 1005.6
12 12.12 З 8 н/о 10/10 200 м
[]
-20.8 -22.7 85 -33 -33 опасность
обморожения
1009.2 1004.3
15 12.12 СЗ 8 н/о 10/10 100 м
[]
-20.6 -22.5 85 -33 -33 опасность
обморожения
1008.8 1003.9
18 12.12 СЗ 8 н/о 10/10 300 м
[]
-20.8 -22.7 85 -33 -33 опасность
обморожения
1009.0 1004.1
21 12.12 СЗ 6 н/о 10/10 300 м
[]
-22.9 -25.0 83 -35 -35 опасность
обморожения
1011.6 1006.7
00 13.12 СЗ 8 н/о 10/10 100 м
[]
-23.0 -25.1 83 -36 -36 опасность
обморожения
1012.4 1007.5
03 13.12 СЗ 7 н/о 10/10 100 м
[]
-21.8 -23.8 84 -34 -34 опасность
обморожения
1013.3 1008.4
06 13.12 З 8 н/о 10/10 200 м
[]
-20.9 -22.8 85 -33 -33 опасность
обморожения
1013.3 1008.4
09 13.12 З 9 н/о ясно -21.9 -23.9 84 -35 -35 опасность
обморожения
1014.1 1009.2
12 13.12 СЗ 9 н/о 10/10 1500 м
[]
-20.2 -22.1 85 -33 -33 опасность
обморожения
1013.9 1009.0
15 13.12 З 10 н/о 10/10 1500 м
[]
-18.9 -20.7 86 -32 -32 опасность
обморожения
1014.1 1009.2
18 13.12 З 12 н/о 9/0
[]
-20.7 -22.6 85 -35 -35 опасность
обморожения
1013.8 1008.9
21 13.12 З 11 н/о 10/10 50 м
[]
-22.7 -24.8 83 -38 -38 опасность
обморожения
1014.0 1009.1
00 14.12 З 10 н/о 9/9 100 м
[]
-21.4 -23.4 84 -35 -35 опасность
обморожения
1016.5 1011.6
03 14.12 СЗ 9 н/о 10/10 100 м
[]
-20.8 -22.7 85 -34 -34 опасность
обморожения
1016.9 1012.0
06 14.12 СЗ 7 н/о 10/10 600 м
[]
-20.7 -22.7 84 -33 -33 опасность
обморожения
1017.7 1012.8
09 14.12 С 6 н/о 9/9 600 м
[]
-23.4 -25.6 82 -35 -35 опасность
обморожения
1018.4 1013.4
12 14.12 С 6 н/о ясно -25.5 -27.9 80 -38 -38 опасность
обморожения
1019.2 1014.2
15 14.12 С 6 н/о ясно -26.7 -29.1 80 -39 -39 опасность
обморожения
1020.5 1015.5
18 14.12 С 4 н/о 10/10 50 м
[]
-27.4 -29.9 79 -37 -37 опасность
обморожения
1019.9 1014.9
21 14.12 С 4 н/о 10/10 200 м
[]
-23.7 -25.9 82 -34 -34 опасность
обморожения
1021.7 1016.7
00 15.12 СВ 3 н/о 10/10 300 м
[]
-22.9 -25.0 83 -30 -30 1021.5 1016.5
03 15.12 СЗ 4 н/о 10/10 300 м
[]
-22.4 -24.5 83 -32 -32 опасность
обморожения
1020.4 1015.4
06 15.12 С 5 н/о 10/0 2000 м
[]
-21.6 -23.7 83 -32 -32 опасность
обморожения
1019.1 1014.1
09 15.12 СВ 2 н/о 10/0 2000 м
[]
-21.8 -23.9 83 -27 -27 1018.0 1013.0
12 15.12 СЗ 2 н/о 5/5 1000 м
[]
-22.9 -25.0 83 -28 -28 1017.1 1012.1

 

Местоположение метеостанции Hat Island (Канада): широта 68.32 долгота -100.00 высота над уровнем моря 36 м.

В архиве по умолчанию представлена погода в Hat Island за последнюю неделю. Архивные данные за месяц целиком и за предыдущие месяцы, начиная с января 2011 года, Вы можете получить, выбрав интересующий диапазон дат из раскрывающегося списка и нажав кнопку "Ввод!".

Внимание! Время в таблицах - всемирное. Для получения местного времени необходимо прибавить поправку, которая в Hat Island равна -6 ч.

Смотрите также архив погоды в соседних городах и на ближайших метеорологических станциях:

Погода в Gjoa Haven Climate (Канада) (173 км)
Погода в Cambridge Bay Gsn (Канада) (223 км)
Погода в Cambridge Bay Arpt (Канада) (223 км)
Погода в Shepherd Bay (Канада) (273 км)
Погода в Spence bay (Канада) (291 км)
Погода в Back River MAPS (Канада) (291 км)
Погода в Cape Peel West (Канада) (325 км)
Погода в Robertson Lake (Канада) (373 км)
Погода в Kugaaruk climate (Канада) (417 км)
Погода в Pelly Bay (Канада) (421 км)

Пояснения к столбцам:

Ветер - указаны скорость ветра в м/с - средняя за 10 мин, порывы в срок и между сроками (в фигурных скобках) и направление, откуда дует ветер: С - северный, СВ - северо-восточный, В - восточный, ЮВ - юго-восточный, Ю - южный, ЮЗ - юго-западный, З - западный, СЗ - северо-западный.
Видимость - горизонтальная дальность видимости в метрах или километрах. При видимости от 1 до 10 км при отсутствии осадков обычно наблюдается дымка, при ухудшении видимости до 1 км и менее - туман. В сухую погоду видимость может ухудшаться дымом, пылью или мглою.
Явления - указаны атмосферные явления, наблюдавшиеся в срок или в последний час перед сроком; фигурными скобками обозначены явления, наблюдавшиеся между сроками (за 1-3 часа до срока); квадратными скобками обозначены град или гололедные отложения с указанием их диаметра в мм.
Облачность - указаны через наклонную черту общая и нижняя облачность в баллах и высота нижней границы облаков в метрах; квадратными скобками обозначены формы облаков: Ci - перистые, Cs - перисто-слоистые, Cc - перисто-кучевые, Ac - высококучевые, As - высокослоистые, Sc - слоисто-кучевые, Ns - слоисто-дождевые, Cu - кучевые, Cb - кучево-дождевые. Подробнее классификацию облаков см. в Атласе облаков (PDF).
T - Температура воздуха - температура, измеренная на высоте 2 м над землей.
Td - Температура точки росы - температура, при понижении до которой содержащийся в воздухе водяной пар достигнет насыщения.
f - Относительная влажность воздуха - влажноcть воздуха, измеренная на высоте 2 м над землей.
Te - Эффективная температура - температура, которую ощущает одетый по сезону человек в тени. Характеристика душности погоды. При расчете учитывается влияние влажности воздуха и скорости ветра на теплоощущения человека.
Tes - Эффективная температура на солнце - температура, которую ощущает человек, с поправкой на солнечный нагрев. Характеристика знойности погоды. Зависит от высоты солнца над горизонтом, облачности и скорости ветра. Ночью, в пасмурную погоду, а также при ветре 12 м/с и более поправка равна нулю.
P - Атмосферное давление - приведенное к уровню моря атмосферное давление.
Po - Атмосферное давление - измеренное на уровне метеостанции атмосферное давление.
Tmin - Минимальная температура - минимум температуры воздуха на высоте 2 м над землей.
Tmax - Максимальная температура - максимум температуры воздуха на высоте 2 м над землей.
R - Количество осадков - Количество выпавших осадков за период времени, мм. При наведении курсора мыши на число - период времени, за который выпало указанное количество осадков.
R24 - Количество осадков - Количество выпавших осадков за 24 часа, мм.
S - Снежный покров - Высота снежного покрова, см. При наведении курсора мыши на число - состояние снежного покрова и степень покрытия местности в баллах.